Simultaneous Nadir Overpasses (SNOs) Predictions

Prediction of SNOs between AQUA and NOAA-19 Satellite Orbit:

Table of predicted SNOs for the next 14.0 days since TLE Epoch: 8/24/2024
Index Date (AQUA) Time (AQUA) Lat,Lon (AQUA) SZA (AQUA ) Date (NOAA-19) Time (NOAA-19) Lat,Lon (NOAA-19) SZA (NOAA-19 ) Distance(km) Time Diff (sec)
1 08/24/2024 21:34:11 -75.66, 35.59 115.11 08/24/2024 21:33:45 -75.67, 35.61 115.10 0.67 26
2 08/24/2024 22:23:34 75.71,-156.88 64.95 08/24/2024 22:24:42 75.71,-157.01 64.95 3.64 68
3 08/27/2024 01:23:30 75.68, 158.27 65.66 08/27/2024 01:23:32 75.66, 158.19 65.65 2.63 2
4 08/29/2024 04:23:24 75.62, 113.50 66.35 08/29/2024 04:22:21 75.66, 113.51 66.39 4.05 63
5 08/29/2024 05:12:46 -75.70, -79.06 113.56 08/29/2024 05:13:21 -75.70, -79.08 113.55 1.05 35
6 08/31/2024 08:12:39 -75.66,-123.89 112.84 08/31/2024 08:12:11 -75.67,-123.86 112.83 0.96 28
7 08/31/2024 09:02:02 75.71, 43.61 67.24 08/31/2024 09:03:06 75.71, 43.56 67.23 1.45 64
8 09/02/2024 12:01:53 75.66, -1.14 67.95 09/02/2024 12:01:55 75.68, -1.19 67.98 3.12 2
9 09/04/2024 15:01:43 75.62, -45.96 68.70 09/04/2024 15:00:44 75.64, -45.98 68.72 2.10 59
10 09/04/2024 15:51:05 -75.70, 121.48 111.22 09/04/2024 15:51:45 -75.72, 121.52 111.20 2.69 40
11 09/06/2024 18:50:53 -75.64, 76.75 110.49 09/06/2024 18:50:35 -75.64, 76.62 110.48 3.58 18



Historial Predications of SNOs between AQUA and NOAA-19
